NOAA 16 DEB, 41352

Orbit data source: Space-Track

NOAA 16 DEB, 41352 is space debris in SSO originally from a launch on Thu, 21 Sep 2000 UTC launched from the Air Force Western Test Range (AFWTR). Debris objects in space refer to the collection of defunct objects orbiting the Earth. Examples of debris include non-operational satellites, rocket bodies, and fragments generated from explosions, collisions, or faulty payload assembly.

Loading next visibility...
Identifier
41352, 2000-055HV
Orbit
SSO
Country
Flag of USUS
Related business
Manufacturer
Unknown
Mission
Spacecraft
Bus & Motor
Unknown
Mass
Unknown
Launch date (UTC)
2000-09-21 (26 years ago)
Launch vehicle
Unknown
Launch site
Air Force Western Test Range (AFWTR)
Object type
Payload
Rocket body
Debris
Shape & HBR
Unknown shape, 0.1 m
Radar Cross Section
Medium (>0.1 m² and <1 m²)

Expand to show TLE details & history
Last TLE update: 14 hours ago

TLE from 14 hours ago
0 NOAA 16 DEB
1 41352U 00055HV  26237.04731802  .00005082  00000-0  11390-2 0  9991
2 41352  98.9424  90.1972 0030497 178.8438 181.2834 14.56818127553196
Epoch: 2026-08-25T01:08Z
TLE epoch observation values (Epoch: 2026-08-25T01:08:08.276Z)
Latitude
-0.00003°
Longitude
99.84244°
Altitude
728.019 km
Speed
7.48 km/s
True Right ascension
06h 00m 47s
True Declination
0° 00' 00"
Sunlit
Object was in daylight at epoch
Visualization orbit readout
Latitude
Unknown
Longitude
Unknown
Altitude
Unknown
Speed
Unknown
Apparent Right ascension
Unknown
Apparent Declination
Unknown
Sunlit
N/A
Visualization observer readout
Local Sidereal Time
06:02:36
Azimuth
Unknown
Elevation
Unknown
Doppler factor
Unknown
Orbital elements
Apogee altitude
722.176 km
Perigee altitude
679 km
Semi-major axis
7,078.725 km
Eccentricity
0.00305
Inclination
98.9424°
RAAN
90.1972°
Arg. of periapsis
178.8438°
True anomaly
181.2756°
Mean anomaly
181.2834°
Eccentric anomaly
181.2795°
Mean motion
3.64427 °/min
Orbital period
98.79 mins
BSTAR
0.001139
Loading maneuver chart data...
Computing Atmospheric mass density...

Documentation

Showing up to 5 results
|